| time (UTC) | temp F | wind direction | speed knots | gust knots | rain 1hr in | rain 24hr in | rain mn in | humidity % | barometer mb |
| 20260510014550 | 41 | 0 | 0.0 | 2.6 | 0.00 | 0.00 | 0.00 | 85 | 1017.8 |
| 20260510013049 | 42 | 55 | 0.9 | 2.6 | 0.00 | 0.00 | 0.00 | 85 | 1017.9 |
| 20260510011546 | 43 | 55 | 0.0 | 1.7 | 0.00 | 0.00 | 0.00 | 85 | 1018.0 |
| 20260510010044 | 45 | 55 | 0.9 | 2.6 | 0.00 | 0.00 | 0.00 | 84 | 1018.0 |
| 20260510004549 | 45 | 0 | 0.0 | 1.7 | 0.00 | 0.00 | 0.00 | 84 | 1018.1 |
| 20260510003049 | 46 | 0 | 0.0 | 2.6 | 0.00 | 0.00 | 0.00 | 84 | 1018.1 |
| 20260510001552 | 46 | 0 | 0.0 | 0.0 | 0.00 | 0.00 | 0.00 | 84 | 1018.2 |
| 20260510000052 | 46 | 0 | 0.0 | 1.7 | 0.00 | 0.00 | 0.00 | 84 | 1018.4 |
| 20260509234546 | 46 | 54 | 0.9 | 3.5 | 0.00 | 0.00 | 0.00 | 83 | 1018.4 |
| 20260509233048 | 46 | 36 | 1.7 | 3.5 | 0.00 | 0.00 | 0.00 | 83 | 1018.5 |
| 20260509231550 | 46 | 34 | 0.9 | 3.5 | 0.00 | 0.00 | 0.00 | 83 | 1018.6 |
| 20260509230043 | 46 | 63 | 1.7 | 3.5 | 0.00 | 0.00 | 0.00 | 83 | 1018.6 |
| 20260509224557 | 46 | 85 | 0.0 | 4.3 | 0.00 | 0.00 | 0.00 | 83 | 1018.7 |
| 20260509223048 | 46 | 80 | 0.9 | 5.2 | 0.00 | 0.00 | 0.00 | 83 | 1018.9 |
| 20260509221600 | 46 | 78 | 2.6 | 5.2 | 0.00 | 0.00 | 0.00 | 83 | 1019.0 |
| 20260509220048 | 46 | 46 | 3.5 | 7.8 | 0.00 | 0.00 | 0.00 | 83 | 1018.9 |
| 20260509214548 | 46 | 47 | 3.5 | 7.8 | 0.00 | 0.00 | 0.00 | 83 | 1019.2 |
| 20260509213049 | 47 | 46 | 1.7 | 7.0 | 0.00 | 0.00 | 0.00 | 83 | 1019.4 |
| 20260509211546 | 47 | 77 | 3.5 | 8.7 | 0.00 | 0.00 | 0.00 | 82 | 1019.4 |
| 20260509210049 | 47 | 59 | 4.3 | 8.7 | 0.00 | 0.00 | 0.00 | 82 | 1019.2 |
| 20260509204551 | 47 | 67 | 3.5 | 9.6 | 0.00 | 0.00 | 0.00 | 82 | 1019.2 |
| 20260509203046 | 47 | 80 | 4.3 | 8.7 | 0.00 | 0.00 | 0.00 | 83 | 1019.2 |
| 20260509201558 | 47 | 57 | 4.3 | 11.3 | 0.00 | 0.00 | 0.00 | 82 | 1019.2 |
| 20260509200058 | 47 | 65 | 3.5 | 10.4 | 0.00 | 0.00 | 0.00 | 82 | 1019.2 |
| 20260509194545 | 48 | 78 | 5.2 | 9.6 | 0.00 | 0.00 | 0.00 | 82 | 1019.1 |
| 20260509193048 | 48 | 77 | 4.3 | 11.3 | 0.00 | 0.00 | 0.00 | 82 | 1019.0 |
| 20260509191546 | 48 | 48 | 4.3 | 11.3 | 0.00 | 0.00 | 0.00 | 81 | 1018.9 |
| 20260509190103 | 48 | 50 | 6.1 | 11.3 | 0.00 | 0.00 | 0.00 | 81 | 1018.8 |
| 20260509184547 | 48 | 40 | 7.0 | 12.2 | 0.00 | 0.04 | 0.00 | 81 | 1018.8 |
| 20260509183049 | 49 | 56 | 7.0 | 13.0 | 0.00 | 0.04 | 0.00 | 81 | 1018.5 |
| 20260509181548 | 49 | 82 | 7.8 | 13.9 | 0.00 | 0.04 | 0.00 | 81 | 1018.6 |
| 20260509180051 | 49 | 38 | 7.8 | 13.9 | 0.00 | 0.04 | 0.00 | 81 | 1018.5 |
| 20260509174543 | 49 | 58 | 7.8 | 13.9 | 0.00 | 0.05 | 0.00 | 81 | 1018.4 |
| 20260509173049 | 49 | 38 | 9.6 | 16.5 | 0.00 | 0.05 | 0.00 | 81 | 1018.3 |
| 20260509171548 | 50 | 29 | 9.6 | 14.8 | 0.00 | 0.05 | 0.00 | 81 | 1018.2 |
| 20260509170044 | 50 | 47 | 7.8 | 13.9 | 0.00 | 0.05 | 0.00 | 81 | 1018.0 |
| 20260509164551 | 50 | 23 | 9.6 | 16.5 | 0.00 | 0.06 | 0.00 | 80 | 1018.0 |
| 20260509163051 | 50 | 49 | 9.6 | 16.5 | 0.00 | 0.06 | 0.00 | 80 | 1018.1 |
| 20260509161556 | 51 | 49 | 10.4 | 15.6 | 0.00 | 0.06 | 0.00 | 80 | 1018.0 |
| 20260509160053 | 51 | 40 | 9.6 | 16.5 | 0.00 | 0.06 | 0.00 | 79 | 1018.2 |
| 20260509154550 | 52 | 43 | 8.7 | 15.6 | 0.00 | 0.06 | 0.00 | 78 | 1018.0 |
| 20260509153053 | 52 | 57 | 10.4 | 16.5 | 0.00 | 0.06 | 0.00 | 78 | 1018.0 |
| 20260509151548 | 52 | 46 | 9.6 | 16.5 | 0.00 | 0.06 | 0.00 | 79 | 1017.9 |
| 20260509150051 | 52 | 32 | 9.6 | 17.4 | 0.00 | 0.06 | 0.00 | 78 | 1018.0 |
| 20260509144547 | 53 | 45 | 9.6 | 16.5 | 0.00 | 0.06 | 0.00 | 78 | 1017.8 |
| 20260509143056 | 53 | 39 | 10.4 | 14.8 | 0.00 | 0.06 | 0.00 | 76 | 1017.9 |
| 20260509141544 | 53 | 58 | 7.8 | 14.8 | 0.00 | 0.06 | 0.00 | 77 | 1018.0 |
| 20260509140100 | 53 | 42 | 10.4 | 14.8 | 0.00 | 0.06 | 0.00 | 77 | 1018.0 |
| 20260509134623 | 54 | 63 | 8.7 | 13.0 | 0.00 | 0.06 | 0.00 | 77 | 1017.9 |
| 20260509133047 | 54 | 52 | 7.8 | 15.6 | 0.00 | 0.06 | 0.00 | 77 | 1018.0 |
| 20260509131551 | 54 | 44 | 9.6 | 14.8 | 0.00 | 0.06 | 0.00 | 76 | 1018.0 |
| 20260509130045 | 54 | 46 | 9.6 | 13.0 | 0.00 | 0.06 | 0.00 | 76 | 1018.1 |
| 20260509124543 | 54 | 35 | 6.1 | 13.0 | 0.00 | 0.06 | 0.00 | 76 | 1018.1 |
| 20260509123047 | 55 | 42 | 10.4 | 14.8 | 0.00 | 0.06 | 0.00 | 74 | 1018.3 |
| 20260509121550 | 55 | 40 | 8.7 | 13.0 | 0.00 | 0.06 | 0.00 | 75 | 1018.4 |
| 20260509120050 | 54 | 41 | 6.1 | 13.9 | 0.00 | 0.06 | 0.00 | 77 | 1018.4 |
| 20260509114548 | 54 | 45 | 7.8 | 13.9 | 0.00 | 0.06 | 0.00 | 78 | 1018.4 |
| 20260509113048 | 52 | 66 | 7.0 | 13.0 | 0.00 | 0.06 | 0.00 | 79 | 1018.7 |
| 20260509111544 | 53 | 47 | 6.1 | 13.0 | 0.00 | 0.06 | 0.00 | 78 | 1018.7 |
| 20260509110042 | 53 | 26 | 7.8 | 12.2 | 0.00 | 0.06 | 0.00 | 77 | 1018.6 |
| 20260509104548 | 53 | 20 | 7.0 | 12.2 | 0.00 | 0.06 | 0.00 | 79 | 1018.6 |
| 20260509103053 | 53 | 58 | 7.8 | 13.9 | 0.00 | 0.06 | 0.00 | 80 | 1018.7 |
| 20260509101601 | 51 | 46 | 7.0 | 13.0 | 0.00 | 0.06 | 0.00 | 80 | 1018.7 |
| 20260509100044 | 52 | 22 | 4.3 | 10.4 | 0.00 | 0.06 | 0.00 | 80 | 1018.8 |
| 20260509094551 | 51 | 44 | 3.5 | 10.4 | 0.00 | 0.07 | 0.00 | 80 | 1018.7 |
| 20260509093058 | 51 | 26 | 7.0 | 11.3 | 0.00 | 0.07 | 0.00 | 80 | 1018.8 |
| 20260509091554 | 51 | 35 | 5.2 | 9.6 | 0.00 | 0.07 | 0.00 | 82 | 1018.8 |
| 20260509090053 | 50 | 15 | 4.3 | 7.8 | 0.00 | 0.07 | 0.00 | 84 | 1018.7 |
| 20260509084550 | 49 | 59 | 5.2 | 8.7 | 0.00 | 0.07 | 0.00 | 85 | 1018.7 |
| 20260509083055 | 49 | 51 | 2.6 | 7.8 | 0.00 | 0.07 | 0.00 | 87 | 1018.8 |
| 20260509081552 | 48 | 85 | 2.6 | 8.7 | 0.00 | 0.07 | 0.00 | 88 | 1018.6 |
| 20260509080044 | 48 | 67 | 5.2 | 8.7 | 0.00 | 0.07 | 0.00 | 88 | 1018.6 |
| 20260509074558 | 48 | 84 | 5.2 | 8.7 | 0.00 | 0.07 | 0.00 | 89 | 1018.4 |
| 20260509073050 | 48 | 42 | 5.2 | 10.4 | 0.00 | 0.07 | 0.00 | 89 | 1018.5 |
| 20260509071550 | 47 | 47 | 4.3 | 11.3 | 0.00 | 0.07 | 0.00 | 89 | 1018.5 |
| 20260509070048 | 47 | 45 | 5.2 | 10.4 | 0.00 | 0.07 | 0.00 | 90 | 1018.4 |
| 20260509064559 | 47 | 92 | 4.3 | 10.4 | 0.00 | 0.07 | 0.00 | 90 | 1018.3 |
| 20260509063046 | 47 | 74 | 5.2 | 10.4 | 0.00 | 0.07 | 0.00 | 90 | 1018.2 |
| 20260509061544 | 47 | 52 | 5.2 | 9.6 | 0.00 | 0.07 | 0.00 | 90 | 1018.3 |
| 20260509060050 | 47 | 90 | 4.3 | 11.3 | 0.00 | 0.07 | 0.00 | 90 | 1018.2 |
| 20260509054549 | 47 | 49 | 5.2 | 9.6 | 0.00 | 0.07 | 0.00 | 90 | 1018.2 |
| 20260509053052 | 47 | 51 | 4.3 | 9.6 | 0.00 | 0.07 | 0.00 | 90 | 1018.1 |
| 20260509051551 | 47 | 55 | 5.2 | 9.6 | 0.00 | 0.07 | 0.00 | 90 | 1018.1 |
| 20260509050046 | 47 | 24 | 4.3 | 9.6 | 0.00 | 0.07 | 0.00 | 90 | 1018.1 |
| 20260509044550 | 47 | 53 | 4.3 | 7.8 | 0.00 | 0.07 | 0.00 | 91 | 1018.1 |
| 20260509043055 | 47 | 72 | 6.1 | 9.6 | 0.00 | 0.07 | 0.00 | 91 | 1017.9 |
| 20260509041548 | 47 | 78 | 5.2 | 8.7 | 0.00 | 0.07 | 0.00 | 91 | 1017.9 |
| 20260509040043 | 47 | 38 | 3.5 | 6.1 | 0.00 | 0.07 | 0.00 | 91 | 1017.9 |
| 20260509034551 | 47 | 46 | 1.7 | 5.2 | 0.00 | 0.07 | 0.00 | 91 | 1017.9 |
| 20260509033054 | 47 | 49 | 0.9 | 6.1 | 0.00 | 0.07 | 0.00 | 91 | 1017.8 |
| 20260509031545 | 47 | 38 | 3.5 | 7.8 | 0.00 | 0.07 | 0.00 | 90 | 1017.8 |
| 20260509030049 | 47 | 39 | 3.5 | 7.8 | 0.00 | 0.07 | 0.00 | 91 | 1017.9 |
| 20260509024617 | 47 | 49 | 3.5 | 7.0 | 0.00 | 0.07 | 0.00 | 91 | 1017.8 |
| 20260509023044 | 47 | 42 | 4.3 | 7.0 | 0.00 | 0.07 | 0.00 | 91 | 1017.8 |
| 20260509021549 | 47 | 360 | 3.5 | 7.8 | 0.00 | 0.07 | 0.00 | 90 | 1017.9 |
| 20260509020043 | 47 | 42 | 4.3 | 7.8 | 0.00 | 0.07 | 0.00 | 90 | 1017.9 |